| time (UTC) | temp F | wind direction | speed MPH | gust MPH | rain 1hr in | rain 24hr in | rain mn in | humidity % | barometer mb |
| 20260508021129 | 45 | 236 | 0.0 | 1.0 | 0.00 | 0.00 | 0.00 | 47 | 1008.4 |
| 20260508020623 | 46 | 236 | 0.0 | 0.0 | 0.00 | 0.00 | 0.00 | 46 | 1008.4 |
| 20260508020117 | 46 | 236 | 0.0 | 0.0 | 0.00 | 0.00 | 0.00 | 46 | 1008.3 |
| 20260508015611 | 47 | 236 | 0.0 | 0.0 | 0.00 | 0.00 | 0.00 | 45 | 1008.3 |
| 20260508015336 | 48 | 236 | 0.0 | 1.0 | 0.00 | 0.00 | 0.00 | 43 | 1008.3 |
| 20260508014600 | 48 | 236 | 0.0 | 1.0 | 0.00 | 0.00 | 0.00 | 42 | 1008.2 |
| 20260508014056 | 48 | 236 | 0.0 | 0.0 | 0.00 | 0.00 | 0.00 | 43 | 1008.2 |
| 20260508014049 | 49 | 236 | 0.0 | 1.0 | 0.00 | 0.00 | 0.00 | 41 | 1008.2 |
| 20260508013041 | 49 | 258 | 0.0 | 1.0 | 0.00 | 0.00 | 0.00 | 42 | 1008.2 |
| 20260508012807 | 50 | 259 | 0.0 | 0.0 | 0.00 | 0.00 | 0.00 | 41 | 1008.1 |
| 20260508012029 | 50 | 259 | 0.0 | 0.0 | 0.00 | 0.00 | 0.00 | 40 | 1008.1 |
| 20260508011523 | 50 | 259 | 0.0 | 0.0 | 0.00 | 0.00 | 0.00 | 40 | 1008.1 |
| 20260508011018 | 51 | 259 | 0.0 | 0.0 | 0.00 | 0.00 | 0.00 | 39 | 1008.1 |
| 20260508010511 | 51 | 259 | 0.0 | 0.0 | 0.00 | 0.00 | 0.00 | 39 | 1008.0 |
| 20260508010006 | 51 | 259 | 0.0 | 0.0 | 0.00 | 0.00 | 0.00 | 38 | 1008.1 |
| 20260508005459 | 52 | 259 | 0.0 | 0.0 | 0.00 | 0.00 | 0.00 | 37 | 1008.0 |
| 20260508004953 | 53 | 259 | 0.0 | 0.0 | 0.00 | 0.00 | 0.00 | 37 | 1008.1 |
| 20260508004447 | 53 | 259 | 0.0 | 0.0 | 0.00 | 0.00 | 0.00 | 36 | 1008.0 |
| 20260508003941 | 53 | 351 | 0.0 | 0.0 | 0.00 | 0.00 | 0.00 | 36 | 1008.1 |
| 20260508003435 | 53 | 8 | 0.0 | 2.0 | 0.00 | 0.00 | 0.00 | 35 | 1008.1 |
| 20260508003200 | 53 | 258 | 0.0 | 2.0 | 0.00 | 0.00 | 0.00 | 35 | 1008.0 |
| 20260508002423 | 53 | 319 | 1.0 | 6.0 | 0.00 | 0.00 | 0.00 | 36 | 1008.1 |
| 20260508001917 | 53 | 319 | 2.0 | 6.0 | 0.00 | 0.00 | 0.00 | 36 | 1008.1 |
| 20260508001411 | 53 | 333 | 1.0 | 4.0 | 0.00 | 0.00 | 0.00 | 36 | 1008.1 |
| 20260508000905 | 53 | 352 | 0.0 | 4.0 | 0.00 | 0.00 | 0.00 | 37 | 1008.1 |
| 20260508000359 | 54 | 340 | 1.0 | 6.0 | 0.00 | 0.00 | 0.00 | 35 | 1008.1 |
| 20260507235853 | 54 | 331 | 1.0 | 6.0 | 0.00 | 0.00 | 0.00 | 34 | 1008.2 |
| 20260507235347 | 54 | 308 | 2.0 | 8.0 | 0.00 | 0.00 | 0.00 | 34 | 1008.1 |
| 20260507235113 | 54 | 320 | 3.0 | 8.0 | 0.00 | 0.00 | 0.00 | 38 | 1008.1 |
| 20260507234335 | 55 | 268 | 3.0 | 8.0 | 0.00 | 0.00 | 0.00 | 34 | 1008.2 |
| 20260507233829 | 55 | 318 | 2.0 | 6.0 | 0.00 | 0.00 | 0.00 | 35 | 1008.2 |
| 20260507233322 | 54 | 6 | 1.0 | 5.0 | 0.00 | 0.00 | 0.00 | 39 | 1008.2 |
| 20260507233049 | 54 | 329 | 1.0 | 4.0 | 0.00 | 0.00 | 0.00 | 34 | 1008.2 |
| 20260507232311 | 54 | 313 | 2.0 | 5.0 | 0.00 | 0.00 | 0.00 | 34 | 1008.2 |
| 20260507231805 | 55 | 350 | 2.0 | 7.0 | 0.00 | 0.00 | 0.00 | 34 | 1008.3 |
| 20260507231531 | 55 | 283 | 3.0 | 7.0 | 0.00 | 0.00 | 0.00 | 34 | 1008.3 |
| 20260507230753 | 55 | 298 | 2.0 | 7.0 | 0.00 | 0.00 | 0.00 | 33 | 1008.3 |
| 20260507230519 | 55 | 248 | 3.0 | 9.0 | 0.00 | 0.00 | 0.00 | 33 | 1008.3 |
| 20260507225742 | 54 | 276 | 3.0 | 13.0 | 0.00 | 0.00 | 0.00 | 34 | 1008.3 |
| 20260507225236 | 55 | 351 | 3.0 | 13.0 | 0.00 | 0.00 | 0.00 | 33 | 1008.3 |
| 20260507224729 | 54 | 281 | 3.0 | 10.0 | 0.00 | 0.00 | 0.00 | 35 | 1008.4 |
| 20260507224223 | 54 | 324 | 2.0 | 10.0 | 0.00 | 0.00 | 0.00 | 36 | 1008.4 |
| 20260507223722 | 54 | 356 | 2.0 | 8.0 | 0.00 | 0.00 | 0.00 | 36 | 1008.5 |
| 20260507223453 | 54 | 286 | 4.0 | 10.0 | 0.00 | 0.00 | 0.00 | 36 | 1008.4 |
| 20260507222722 | 54 | 319 | 5.0 | 10.0 | 0.00 | 0.00 | 0.00 | 34 | 1008.5 |
| 20260507222222 | 54 | 316 | 4.0 | 9.0 | 0.00 | 0.00 | 0.00 | 35 | 1008.5 |
| 20260507221722 | 55 | 334 | 3.0 | 9.0 | 0.00 | 0.00 | 0.00 | 33 | 1008.5 |
| 20260507221454 | 55 | 319 | 2.0 | 9.0 | 0.00 | 0.00 | 0.00 | 35 | 1008.5 |
| 20260507220721 | 55 | 287 | 3.0 | 10.0 | 0.00 | 0.00 | 0.00 | 33 | 1008.6 |
| 20260507220222 | 55 | 293 | 4.0 | 15.0 | 0.00 | 0.00 | 0.00 | 32 | 1008.6 |
| 20260507215722 | 55 | 290 | 3.0 | 15.0 | 0.00 | 0.00 | 0.00 | 34 | 1008.6 |
| 20260507215452 | 55 | 6 | 2.0 | 7.0 | 0.00 | 0.00 | 0.00 | 34 | 1008.7 |
| 20260507214954 | 55 | 338 | 3.0 | 7.0 | 0.00 | 0.00 | 0.00 | 33 | 1008.6 |
| 20260507214222 | 55 | 290 | 2.0 | 8.0 | 0.00 | 0.00 | 0.00 | 33 | 1008.6 |
| 20260507213722 | 55 | 205 | 1.0 | 8.0 | 0.00 | 0.00 | 0.00 | 34 | 1008.7 |
| 20260507213221 | 55 | 342 | 2.0 | 8.0 | 0.00 | 0.00 | 0.00 | 35 | 1008.7 |
| 20260507212721 | 55 | 6 | 3.0 | 8.0 | 0.00 | 0.00 | 0.00 | 34 | 1008.7 |
| 20260507212222 | 55 | 37 | 2.0 | 8.0 | 0.00 | 0.00 | 0.00 | 35 | 1008.7 |
| 20260507211718 | 54 | 340 | 2.0 | 9.0 | 0.00 | 0.00 | 0.00 | 34 | 1008.8 |
| 20260507211219 | 54 | 312 | 2.0 | 9.0 | 0.00 | 0.00 | 0.00 | 35 | 1008.8 |
| 20260507210724 | 54 | 342 | 4.0 | 14.0 | 0.00 | 0.00 | 0.00 | 35 | 1008.9 |
| 20260507210719 | 54 | 291 | 3.0 | 14.0 | 0.00 | 0.00 | 0.00 | 34 | 1008.9 |
| 20260507205718 | 54 | 283 | 3.0 | 9.0 | 0.00 | 0.00 | 0.00 | 36 | 1008.8 |
| 20260507205219 | 54 | 311 | 2.0 | 9.0 | 0.00 | 0.00 | 0.00 | 34 | 1009.0 |
| 20260507204719 | 54 | 305 | 2.0 | 8.0 | 0.00 | 0.00 | 0.00 | 34 | 1009.0 |
| 20260507204219 | 54 | 347 | 4.0 | 9.0 | 0.00 | 0.00 | 0.00 | 34 | 1009.0 |
| 20260507203718 | 54 | 214 | 4.0 | 10.0 | 0.00 | 0.00 | 0.00 | 35 | 1009.1 |
| 20260507203221 | 54 | 7 | 4.0 | 10.0 | 0.00 | 0.00 | 0.00 | 34 | 1009.1 |
| 20260507202720 | 53 | 221 | 5.0 | 11.0 | 0.00 | 0.00 | 0.00 | 36 | 1009.2 |
| 20260507202220 | 54 | 14 | 4.0 | 12.0 | 0.00 | 0.00 | 0.00 | 34 | 1009.2 |
| 20260507201721 | 54 | 332 | 4.0 | 12.0 | 0.00 | 0.00 | 0.00 | 34 | 1009.3 |
| 20260507201215 | 54 | 339 | 3.0 | 11.0 | 0.00 | 0.00 | 0.00 | 35 | 1009.2 |
| 20260507200948 | 54 | 351 | 2.0 | 11.0 | 0.00 | 0.00 | 0.00 | 34 | 1009.4 |
| 20260507200216 | 54 | 214 | 2.0 | 11.0 | 0.00 | 0.00 | 0.00 | 34 | 1009.5 |
| 20260507195714 | 54 | 273 | 3.0 | 8.0 | 0.00 | 0.00 | 0.00 | 35 | 1009.4 |
| 20260507195446 | 54 | 346 | 3.0 | 10.0 | 0.00 | 0.00 | 0.00 | 35 | 1009.5 |
| 20260507194714 | 53 | 358 | 1.0 | 10.0 | 0.00 | 0.00 | 0.00 | 37 | 1009.5 |
| 20260507194215 | 53 | 289 | 2.0 | 8.0 | 0.00 | 0.00 | 0.00 | 34 | 1009.5 |
| 20260507193715 | 53 | 293 | 2.0 | 11.0 | 0.00 | 0.00 | 0.00 | 33 | 1009.5 |
| 20260507193216 | 54 | 282 | 2.0 | 11.0 | 0.00 | 0.00 | 0.00 | 34 | 1009.6 |
| 20260507192710 | 54 | 165 | 2.0 | 9.0 | 0.00 | 0.00 | 0.00 | 34 | 1009.5 |
| 20260507192210 | 54 | 57 | 3.0 | 12.0 | 0.00 | 0.00 | 0.00 | 33 | 1009.6 |
| 20260507191942 | 54 | 1 | 3.0 | 12.0 | 0.00 | 0.00 | 0.00 | 36 | 1009.6 |
| 20260507191211 | 54 | 276 | 2.0 | 7.0 | 0.00 | 0.00 | 0.00 | 34 | 1009.8 |
| 20260507190710 | 54 | 202 | 2.0 | 8.0 | 0.00 | 0.00 | 0.00 | 34 | 1009.8 |
| 20260507190211 | 54 | 288 | 2.0 | 8.0 | 0.00 | 0.00 | 0.00 | 33 | 1009.8 |
| 20260507185712 | 54 | 321 | 2.0 | 13.0 | 0.00 | 0.00 | 0.00 | 34 | 1009.8 |
| 20260507185448 | 54 | 229 | 3.0 | 9.0 | 0.00 | 0.00 | 0.00 | 35 | 1009.9 |
| 20260507185211 | 54 | 273 | 3.0 | 13.0 | 0.00 | 0.00 | 0.00 | 33 | 1009.8 |
| 20260507184206 | 54 | 259 | 2.0 | 13.0 | 0.00 | 0.00 | 0.00 | 33 | 1010.0 |
| 20260507183705 | 53 | 328 | 2.0 | 13.0 | 0.00 | 0.00 | 0.00 | 34 | 1010.0 |
| 20260507183205 | 53 | 210 | 3.0 | 9.0 | 0.00 | 0.00 | 0.00 | 33 | 1010.0 |
| 20260507182705 | 53 | 206 | 3.0 | 11.0 | 0.00 | 0.00 | 0.00 | 33 | 1010.1 |
| 20260507182206 | 53 | 348 | 3.0 | 11.0 | 0.00 | 0.00 | 0.00 | 36 | 1010.1 |
| 20260507181705 | 53 | 293 | 3.0 | 9.0 | 0.00 | 0.00 | 0.00 | 34 | 1010.2 |
| 20260507181205 | 53 | 321 | 2.0 | 9.0 | 0.00 | 0.00 | 0.00 | 33 | 1010.2 |
| 20260507180705 | 53 | 111 | 1.0 | 6.0 | 0.00 | 0.00 | 0.00 | 33 | 1010.3 |
| 20260507180204 | 53 | 212 | 2.0 | 8.0 | 0.00 | 0.00 | 0.00 | 31 | 1010.3 |
| 20260507175705 | 53 | 277 | 2.0 | 8.0 | 0.00 | 0.00 | 0.00 | 32 | 1010.5 |
| 20260507175159 | 53 | 9 | 2.0 | 9.0 | 0.00 | 0.00 | 0.00 | 32 | 1010.6 |
| 20260507174652 | 54 | 314 | 2.0 | 9.0 | 0.00 | 0.00 | 0.00 | 32 | 1010.6 |
| 20260507174147 | 53 | 281 | 2.0 | 8.0 | 0.00 | 0.00 | 0.00 | 32 | 1010.6 |
| 20260507173641 | 52 | 13 | 3.0 | 10.0 | 0.00 | 0.00 | 0.00 | 33 | 1010.7 |
| 20260507173135 | 52 | 264 | 3.0 | 10.0 | 0.00 | 0.00 | 0.00 | 33 | 1010.7 |
| 20260507172900 | 51 | 39 | 2.0 | 6.0 | 0.00 | 0.00 | 0.00 | 35 | 1010.7 |
| 20260507172354 | 51 | 311 | 2.0 | 7.0 | 0.00 | 0.00 | 0.00 | 35 | 1010.9 |
| 20260507171617 | 50 | 237 | 3.0 | 11.0 | 0.00 | 0.00 | 0.00 | 35 | 1010.9 |
| 20260507171338 | 50 | 243 | 2.0 | 7.0 | 0.00 | 0.00 | 0.00 | 36 | 1010.9 |
| 20260507171212 | 51 | 306 | 3.0 | 11.0 | 0.00 | 0.00 | 0.00 | 34 | 1011.0 |
| 20260507170100 | 50 | 220 | 3.0 | 7.0 | 0.00 | 0.00 | 0.00 | 35 | 1011.1 |
| 20260507165601 | 50 | 311 | 3.0 | 9.0 | 0.00 | 0.00 | 0.00 | 37 | 1011.1 |
| 20260507165058 | 50 | 301 | 3.0 | 9.0 | 0.00 | 0.00 | 0.00 | 35 | 1011.1 |
| 20260507164559 | 50 | 280 | 3.0 | 7.0 | 0.00 | 0.00 | 0.00 | 37 | 1011.1 |
| 20260507164330 | 49 | 226 | 3.0 | 12.0 | 0.00 | 0.00 | 0.00 | 36 | 1011.3 |
| 20260507163559 | 49 | 345 | 3.0 | 12.0 | 0.00 | 0.00 | 0.00 | 40 | 1011.2 |
| 20260507163059 | 50 | 292 | 2.0 | 7.0 | 0.00 | 0.00 | 0.00 | 36 | 1011.2 |
| 20260507162825 | 51 | 250 | 3.0 | 9.0 | 0.00 | 0.00 | 0.00 | 35 | 1011.4 |
| 20260507162056 | 50 | 304 | 3.0 | 9.0 | 0.00 | 0.00 | 0.00 | 37 | 1011.4 |
| 20260507161556 | 49 | 285 | 2.0 | 8.0 | 0.00 | 0.00 | 0.00 | 38 | 1011.4 |
| 20260507161326 | 50 | 349 | 2.0 | 8.0 | 0.00 | 0.00 | 0.00 | 36 | 1011.6 |
| 20260507160553 | 50 | 309 | 2.0 | 8.0 | 0.00 | 0.00 | 0.00 | 35 | 1011.6 |
| 20260507160053 | 51 | 258 | 2.0 | 6.0 | 0.00 | 0.00 | 0.00 | 38 | 1011.6 |
| 20260507155553 | 50 | 320 | 2.0 | 6.0 | 0.00 | 0.00 | 0.00 | 36 | 1011.7 |
| 20260507155052 | 50 | 297 | 2.0 | 6.0 | 0.00 | 0.00 | 0.00 | 36 | 1011.6 |
| 20260507154552 | 50 | 242 | 2.0 | 7.0 | 0.00 | 0.00 | 0.00 | 37 | 1011.6 |
| 20260507154053 | 50 | 282 | 2.0 | 7.0 | 0.00 | 0.00 | 0.00 | 36 | 1011.6 |
| 20260507153553 | 50 | 219 | 2.0 | 8.0 | 0.00 | 0.00 | 0.00 | 39 | 1011.6 |
| 20260507153047 | 49 | 316 | 1.0 | 8.0 | 0.00 | 0.00 | 0.00 | 40 | 1011.6 |
| 20260507152541 | 50 | 286 | 1.0 | 6.0 | 0.00 | 0.00 | 0.00 | 39 | 1011.6 |
| 20260507152034 | 50 | 287 | 1.0 | 5.0 | 0.00 | 0.00 | 0.00 | 39 | 1011.6 |
| 20260507151529 | 49 | 307 | 1.0 | 6.0 | 0.00 | 0.00 | 0.00 | 41 | 1011.7 |
| 20260507151023 | 49 | 141 | 1.0 | 6.0 | 0.00 | 0.00 | 0.00 | 42 | 1011.6 |
| 20260507150517 | 48 | 342 | 2.0 | 5.0 | 0.00 | 0.00 | 0.00 | 44 | 1011.7 |
| 20260507150244 | 47 | 343 | 1.0 | 4.0 | 0.00 | 0.00 | 0.00 | 44 | 1011.7 |
| 20260507145505 | 47 | 79 | 1.0 | 6.0 | 0.00 | 0.00 | 0.00 | 42 | 1011.7 |
| 20260507145231 | 47 | 336 | 2.0 | 6.0 | 0.00 | 0.00 | 0.00 | 40 | 1011.8 |
| 20260507144453 | 48 | 286 | 1.0 | 5.0 | 0.00 | 0.00 | 0.00 | 42 | 1011.9 |
| 20260507143947 | 48 | 141 | 1.0 | 5.0 | 0.00 | 0.00 | 0.00 | 46 | 1011.9 |
| 20260507143441 | 47 | 272 | 2.0 | 6.0 | 0.00 | 0.00 | 0.00 | 46 | 1011.9 |
| 20260507142934 | 47 | 282 | 2.0 | 6.0 | 0.00 | 0.00 | 0.00 | 45 | 1011.9 |
| 20260507142429 | 47 | 332 | 1.0 | 4.0 | 0.00 | 0.00 | 0.00 | 47 | 1012.0 |
| 20260507141923 | 47 | 255 | 1.0 | 4.0 | 0.00 | 0.00 | 0.00 | 48 | 1012.1 |
| 20260507141417 | 46 | 167 | 2.0 | 6.0 | 0.00 | 0.00 | 0.00 | 50 | 1012.0 |
| 20260507140911 | 46 | 228 | 3.0 | 6.0 | 0.00 | 0.00 | 0.00 | 50 | 1012.0 |
| 20260507140406 | 46 | 231 | 2.0 | 6.0 | 0.00 | 0.00 | 0.00 | 49 | 1012.1 |
| 20260507135859 | 46 | 328 | 1.0 | 5.0 | 0.00 | 0.00 | 0.00 | 51 | 1012.2 |
| 20260507135353 | 46 | 281 | 1.0 | 5.0 | 0.00 | 0.00 | 0.00 | 51 | 1012.2 |
| 20260507134847 | 45 | 343 | 2.0 | 6.0 | 0.00 | 0.00 | 0.00 | 54 | 1012.2 |
| 20260507134613 | 45 | 306 | 2.0 | 6.0 | 0.00 | 0.00 | 0.00 | 52 | 1012.2 |
| 20260507133835 | 44 | 36 | 2.0 | 4.0 | 0.00 | 0.00 | 0.00 | 54 | 1012.2 |
| 20260507133329 | 44 | 287 | 1.0 | 5.0 | 0.00 | 0.00 | 0.00 | 54 | 1012.2 |
| 20260507132823 | 44 | 224 | 1.0 | 5.0 | 0.00 | 0.00 | 0.00 | 55 | 1012.3 |
| 20260507132317 | 44 | 234 | 1.0 | 4.0 | 0.00 | 0.00 | 0.00 | 56 | 1012.3 |
| 20260507131811 | 43 | 143 | 1.0 | 4.0 | 0.00 | 0.00 | 0.00 | 57 | 1012.3 |
| 20260507131305 | 43 | 276 | 1.0 | 4.0 | 0.00 | 0.00 | 0.00 | 56 | 1012.3 |
| 20260507130759 | 43 | 229 | 1.0 | 6.0 | 0.00 | 0.00 | 0.00 | 57 | 1012.3 |
| 20260507130253 | 42 | 285 | 1.0 | 6.0 | 0.00 | 0.00 | 0.00 | 59 | 1012.3 |
| 20260507125747 | 42 | 318 | 1.0 | 4.0 | 0.00 | 0.00 | 0.00 | 59 | 1012.3 |
| 20260507125241 | 42 | 265 | 1.0 | 4.0 | 0.00 | 0.00 | 0.00 | 61 | 1012.4 |
| 20260507124735 | 42 | 298 | 0.0 | 3.0 | 0.00 | 0.00 | 0.00 | 62 | 1012.4 |
| 20260507124503 | 41 | 215 | 0.0 | 2.0 | 0.00 | 0.00 | 0.00 | 62 | 1012.4 |
| 20260507124227 | 41 | 291 | 0.0 | 2.0 | 0.00 | 0.00 | 0.00 | 65 | 1012.4 |
| 20260507123216 | 40 | 226 | 0.0 | 2.0 | 0.00 | 0.00 | 0.00 | 66 | 1012.4 |
| 20260507122710 | 40 | 316 | 0.0 | 3.0 | 0.00 | 0.00 | 0.00 | 66 | 1012.4 |
| 20260507122443 | 40 | 289 | 0.0 | 3.0 | 0.00 | 0.00 | 0.00 | 66 | 1012.4 |
| 20260507121708 | 40 | 244 | 0.0 | 2.0 | 0.00 | 0.00 | 0.00 | 65 | 1012.3 |
| 20260507121207 | 40 | 212 | 0.0 | 1.0 | 0.00 | 0.00 | 0.00 | 65 | 1012.3 |
| 20260507120704 | 40 | 219 | 0.0 | 1.0 | 0.00 | 0.00 | 0.00 | 67 | 1012.2 |
| 20260507120204 | 39 | 203 | 0.0 | 0.0 | 0.00 | 0.00 | 0.00 | 68 | 1012.2 |
| 20260507115705 | 38 | 234 | 0.0 | 0.0 | 0.00 | 0.00 | 0.00 | 69 | 1012.2 |
| 20260507115202 | 37 | 234 | 0.0 | 0.0 | 0.00 | 0.00 | 0.00 | 70 | 1012.2 |
| 20260507114701 | 37 | 234 | 0.0 | 0.0 | 0.00 | 0.00 | 0.00 | 71 | 1012.2 |
| 20260507114201 | 36 | 235 | 0.0 | 0.0 | 0.00 | 0.00 | 0.00 | 72 | 1012.2 |
| 20260507113700 | 35 | 235 | 0.0 | 0.0 | 0.00 | 0.00 | 0.00 | 74 | 1012.2 |
| 20260507113159 | 35 | 235 | 0.0 | 0.0 | 0.00 | 0.00 | 0.00 | 74 | 1012.1 |
| 20260507112930 | 34 | 225 | 0.0 | 0.0 | 0.00 | 0.00 | 0.00 | 75 | 1012.2 |
| 20260507112157 | 34 | 225 | 0.0 | 0.0 | 0.00 | 0.00 | 0.00 | 77 | 1012.2 |
| 20260507111659 | 33 | 221 | 0.0 | 0.0 | 0.00 | 0.00 | 0.00 | 78 | 1012.2 |
| 20260507111432 | 32 | 219 | 0.0 | 0.0 | 0.00 | 0.00 | 0.00 | 80 | 1012.2 |
| 20260507110657 | 31 | 231 | 0.0 | 0.0 | 0.00 | 0.00 | 0.00 | 81 | 1012.2 |
| 20260507110154 | 31 | 231 | 0.0 | 0.0 | 0.00 | 0.00 | 0.00 | 81 | 1012.2 |
| 20260507105927 | 32 | 231 | 0.0 | 1.0 | 0.00 | 0.00 | 0.00 | 80 | 1012.3 |
| 20260507105155 | 32 | 231 | 0.0 | 1.0 | 0.00 | 0.00 | 0.00 | 80 | 1012.3 |
| 20260507104649 | 32 | 231 | 0.0 | 0.0 | 0.00 | 0.00 | 0.00 | 79 | 1012.2 |
| 20260507104142 | 33 | 231 | 0.0 | 1.0 | 0.00 | 0.00 | 0.00 | 79 | 1012.2 |
| 20260507103907 | 33 | 231 | 0.0 | 1.0 | 0.00 | 0.00 | 0.00 | 78 | 1012.3 |
| 20260507103132 | 33 | 231 | 0.0 | 0.0 | 0.00 | 0.00 | 0.00 | 77 | 1012.3 |
| 20260507103127 | 33 | 231 | 0.0 | 0.0 | 0.00 | 0.00 | 0.00 | 77 | 1012.3 |
| 20260507102122 | 33 | 231 | 0.0 | 0.0 | 0.00 | 0.00 | 0.00 | 78 | 1012.4 |
| 20260507101622 | 33 | 217 | 0.0 | 0.0 | 0.00 | 0.00 | 0.00 | 78 | 1012.3 |
| 20260507101351 | 33 | 217 | 0.0 | 0.0 | 0.00 | 0.00 | 0.00 | 79 | 1012.3 |
| 20260507100619 | 33 | 217 | 0.0 | 0.0 | 0.00 | 0.00 | 0.00 | 77 | 1012.2 |
| 20260507100349 | 34 | 217 | 0.0 | 0.0 | 0.00 | 0.00 | 0.00 | 77 | 1012.2 |
| 20260507095619 | 34 | 217 | 0.0 | 1.0 | 0.00 | 0.00 | 0.00 | 77 | 1012.2 |
| 20260507095116 | 34 | 217 | 0.0 | 1.0 | 0.00 | 0.00 | 0.00 | 76 | 1012.3 |
| 20260507094616 | 34 | 217 | 0.0 | 2.0 | 0.00 | 0.00 | 0.00 | 76 | 1012.2 |
| 20260507094115 | 34 | 229 | 0.0 | 2.0 | 0.00 | 0.00 | 0.00 | 77 | 1012.3 |
| 20260507093614 | 34 | 242 | 0.0 | 0.0 | 0.00 | 0.00 | 0.00 | 77 | 1012.3 |
| 20260507093344 | 34 | 243 | 0.0 | 0.0 | 0.00 | 0.00 | 0.00 | 77 | 1012.3 |
| 20260507092611 | 34 | 243 | 0.0 | 0.0 | 0.00 | 0.00 | 0.00 | 77 | 1012.3 |
| 20260507092340 | 34 | 212 | 0.0 | 0.0 | 0.00 | 0.00 | 0.00 | 77 | 1012.3 |
| 20260507091605 | 34 | 212 | 0.0 | 0.0 | 0.00 | 0.00 | 0.00 | 77 | 1012.3 |
| 20260507091107 | 34 | 212 | 0.0 | 0.0 | 0.00 | 0.00 | 0.00 | 77 | 1012.3 |
| 20260507090605 | 34 | 212 | 0.0 | 0.0 | 0.00 | 0.00 | 0.00 | 76 | 1012.2 |
| 20260507085602 | 34 | 212 | 0.0 | 0.0 | 0.00 | 0.00 | 0.00 | 76 | 1012.3 |
| 20260507085100 | 34 | 212 | 0.0 | 0.0 | 0.00 | 0.00 | 0.00 | 76 | 1012.3 |
| 20260507084828 | 35 | 212 | 0.0 | 0.0 | 0.00 | 0.00 | 0.00 | 76 | 1012.3 |
| 20260507084101 | 35 | 212 | 0.0 | 0.0 | 0.00 | 0.00 | 0.00 | 75 | 1012.2 |
| 20260507083558 | 35 | 212 | 0.0 | 0.0 | 0.00 | 0.00 | 0.00 | 76 | 1012.3 |
| 20260507083331 | 34 | 232 | 0.0 | 0.0 | 0.00 | 0.00 | 0.00 | 76 | 1012.3 |
| 20260507082829 | 34 | 232 | 0.0 | 0.0 | 0.00 | 0.00 | 0.00 | 77 | 1012.3 |
| 20260507082100 | 34 | 232 | 0.0 | 0.0 | 0.00 | 0.00 | 0.00 | 75 | 1012.3 |
| 20260507081559 | 34 | 232 | 0.0 | 0.0 | 0.00 | 0.00 | 0.00 | 75 | 1012.3 |
| 20260507081101 | 34 | 232 | 0.0 | 0.0 | 0.00 | 0.00 | 0.00 | 74 | 1012.3 |
| 20260507080554 | 34 | 233 | 0.0 | 0.0 | 0.00 | 0.00 | 0.00 | 74 | 1012.2 |
| 20260507080055 | 34 | 233 | 0.0 | 0.0 | 0.00 | 0.00 | 0.00 | 74 | 1012.2 |
| 20260507075827 | 34 | 233 | 0.0 | 0.0 | 0.00 | 0.00 | 0.00 | 73 | 1012.1 |
| 20260507075327 | 34 | 233 | 0.0 | 0.0 | 0.00 | 0.00 | 0.00 | 73 | 1012.1 |
| 20260507074555 | 34 | 233 | 0.0 | 1.0 | 0.00 | 0.00 | 0.00 | 73 | 1012.2 |
| 20260507074056 | 34 | 233 | 0.0 | 1.0 | 0.00 | 0.00 | 0.00 | 72 | 1012.2 |
| 20260507073554 | 35 | 233 | 0.0 | 0.0 | 0.00 | 0.00 | 0.00 | 73 | 1012.2 |
| 20260507073055 | 35 | 233 | 0.0 | 0.0 | 0.00 | 0.00 | 0.00 | 72 | 1012.3 |
| 20260507072554 | 35 | 233 | 0.0 | 0.0 | 0.00 | 0.00 | 0.00 | 72 | 1012.4 |
| 20260507072050 | 35 | 233 | 0.0 | 0.0 | 0.00 | 0.00 | 0.00 | 71 | 1012.4 |
| 20260507071549 | 36 | 233 | 0.0 | 0.0 | 0.00 | 0.00 | 0.00 | 70 | 1012.5 |
| 20260507071321 | 36 | 233 | 0.0 | 0.0 | 0.00 | 0.00 | 0.00 | 69 | 1012.4 |
| 20260507070549 | 37 | 233 | 0.0 | 0.0 | 0.00 | 0.00 | 0.00 | 68 | 1012.5 |
| 20260507070051 | 37 | 233 | 0.0 | 0.0 | 0.00 | 0.00 | 0.00 | 68 | 1012.6 |
| 20260507065549 | 37 | 233 | 0.0 | 0.0 | 0.00 | 0.00 | 0.00 | 68 | 1012.6 |
| 20260507065050 | 37 | 226 | 0.0 | 0.0 | 0.00 | 0.00 | 0.00 | 67 | 1012.7 |
| 20260507064551 | 37 | 223 | 0.0 | 0.0 | 0.00 | 0.00 | 0.00 | 67 | 1012.7 |
| 20260507064051 | 38 | 223 | 0.0 | 0.0 | 0.00 | 0.00 | 0.00 | 68 | 1012.7 |
| 20260507063815 | 38 | 226 | 0.0 | 0.0 | 0.00 | 0.00 | 0.00 | 68 | 1012.7 |
| 20260507063308 | 38 | 226 | 0.0 | 1.0 | 0.00 | 0.00 | 0.00 | 67 | 1012.9 |
| 20260507062532 | 38 | 226 | 0.0 | 1.0 | 0.00 | 0.00 | 0.00 | 68 | 1012.9 |
| 20260507062026 | 38 | 217 | 0.0 | 0.0 | 0.00 | 0.00 | 0.00 | 68 | 1012.9 |
| 20260507061520 | 38 | 155 | 0.0 | 0.0 | 0.00 | 0.00 | 0.00 | 66 | 1013.0 |
| 20260507061014 | 38 | 212 | 0.0 | 0.0 | 0.00 | 0.00 | 0.00 | 66 | 1013.0 |
| 20260507060508 | 38 | 232 | 0.0 | 1.0 | 0.00 | 0.00 | 0.00 | 66 | 1013.1 |
| 20260507060234 | 38 | 232 | 0.0 | 1.0 | 0.00 | 0.00 | 0.00 | 65 | 1013.2 |
| 20260507055456 | 38 | 218 | 0.0 | 0.0 | 0.00 | 0.00 | 0.00 | 65 | 1013.2 |
| 20260507054950 | 38 | 212 | 0.0 | 0.0 | 0.00 | 0.00 | 0.00 | 65 | 1013.2 |
| 20260507054444 | 38 | 212 | 0.0 | 0.0 | 0.00 | 0.00 | 0.00 | 65 | 1013.2 |
| 20260507053937 | 38 | 212 | 0.0 | 0.0 | 0.00 | 0.00 | 0.00 | 65 | 1013.3 |
| 20260507053435 | 38 | 213 | 0.0 | 1.0 | 0.00 | 0.00 | 0.00 | 65 | 1013.3 |
| 20260507052935 | 38 | 212 | 0.0 | 1.0 | 0.00 | 0.00 | 0.00 | 65 | 1013.4 |
| 20260507052435 | 38 | 248 | 0.0 | 0.0 | 0.00 | 0.00 | 0.00 | 64 | 1013.3 |
| 20260507051937 | 38 | 249 | 0.0 | 0.0 | 0.00 | 0.00 | 0.00 | 64 | 1013.4 |
| 20260507051435 | 38 | 248 | 0.0 | 0.0 | 0.00 | 0.00 | 0.00 | 64 | 1013.4 |
| 20260507050936 | 38 | 248 | 0.0 | 0.0 | 0.00 | 0.00 | 0.00 | 64 | 1013.4 |
| 20260507050434 | 38 | 248 | 0.0 | 0.0 | 0.00 | 0.00 | 0.00 | 64 | 1013.5 |
| 20260507045934 | 38 | 248 | 0.0 | 0.0 | 0.00 | 0.00 | 0.00 | 64 | 1013.5 |
| 20260507045431 | 38 | 248 | 0.0 | 0.0 | 0.00 | 0.00 | 0.00 | 63 | 1013.5 |
| 20260507044931 | 38 | 248 | 0.0 | 0.0 | 0.00 | 0.00 | 0.00 | 63 | 1013.5 |
| 20260507044431 | 39 | 248 | 0.0 | 1.0 | 0.00 | 0.00 | 0.00 | 63 | 1013.6 |
| 20260507043932 | 38 | 249 | 0.0 | 1.0 | 0.00 | 0.00 | 0.00 | 63 | 1013.6 |
| 20260507043433 | 38 | 271 | 0.0 | 0.0 | 0.00 | 0.00 | 0.00 | 63 | 1013.7 |
| 20260507042930 | 38 | 215 | 0.0 | 0.0 | 0.00 | 0.00 | 0.00 | 63 | 1013.7 |
| 20260507042427 | 38 | 215 | 0.0 | 0.0 | 0.00 | 0.00 | 0.00 | 63 | 1013.7 |
| 20260507041927 | 39 | 215 | 0.0 | 0.0 | 0.00 | 0.00 | 0.00 | 62 | 1013.8 |
| 20260507041424 | 39 | 215 | 0.0 | 0.0 | 0.00 | 0.00 | 0.00 | 62 | 1013.8 |
| 20260507040918 | 39 | 215 | 0.0 | 0.0 | 0.00 | 0.00 | 0.00 | 62 | 1013.8 |
| 20260507040413 | 39 | 214 | 0.0 | 0.0 | 0.00 | 0.00 | 0.00 | 62 | 1013.8 |
| 20260507035907 | 39 | 214 | 0.0 | 0.0 | 0.00 | 0.00 | 0.00 | 62 | 1013.9 |
| 20260507035401 | 39 | 214 | 0.0 | 0.0 | 0.00 | 0.00 | 0.00 | 62 | 1013.9 |
| 20260507034855 | 39 | 214 | 0.0 | 1.0 | 0.00 | 0.00 | 0.00 | 61 | 1014.0 |
| 20260507034349 | 39 | 214 | 0.0 | 1.0 | 0.00 | 0.00 | 0.00 | 62 | 1013.9 |
| 20260507033842 | 39 | 315 | 0.0 | 0.0 | 0.00 | 0.00 | 0.00 | 62 | 1013.9 |
| 20260507033609 | 39 | 9 | 0.0 | 0.0 | 0.00 | 0.00 | 0.00 | 61 | 1014.0 |
| 20260507032834 | 39 | 300 | 0.0 | 0.0 | 0.00 | 0.00 | 0.00 | 61 | 1014.0 |
| 20260507032827 | 39 | 300 | 0.0 | 0.0 | 0.00 | 0.00 | 0.00 | 61 | 1013.9 |
| 20260507031819 | 39 | 300 | 0.0 | 0.0 | 0.00 | 0.00 | 0.00 | 62 | 1014.0 |
| 20260507031313 | 39 | 300 | 0.0 | 0.0 | 0.00 | 0.00 | 0.00 | 61 | 1014.0 |
| 20260507030807 | 39 | 300 | 0.0 | 0.0 | 0.00 | 0.00 | 0.00 | 61 | 1014.0 |
| 20260507030301 | 39 | 300 | 0.0 | 0.0 | 0.00 | 0.00 | 0.00 | 61 | 1014.0 |
| 20260507025755 | 39 | 300 | 0.0 | 0.0 | 0.00 | 0.00 | 0.00 | 60 | 1014.0 |
| 20260507025249 | 39 | 300 | 0.0 | 0.0 | 0.00 | 0.00 | 0.00 | 59 | 1014.0 |
| 20260507025014 | 40 | 300 | 0.0 | 0.0 | 0.00 | 0.00 | 0.00 | 59 | 1014.0 |
| 20260507024240 | 40 | 300 | 0.0 | 0.0 | 0.00 | 0.00 | 0.00 | 58 | 1014.0 |
| 20260507024233 | 40 | 300 | 0.0 | 1.0 | 0.00 | 0.00 | 0.00 | 58 | 1014.0 |
| 20260507023226 | 40 | 300 | 0.0 | 1.0 | 0.00 | 0.00 | 0.00 | 57 | 1014.0 |
| 20260507022719 | 40 | 297 | 0.0 | 1.0 | 0.00 | 0.00 | 0.00 | 58 | 1014.0 |
| 20260507022213 | 40 | 297 | 0.0 | 0.0 | 0.00 | 0.00 | 0.00 | 58 | 1014.0 |
| 20260507021707 | 40 | 296 | 0.0 | 0.0 | 0.00 | 0.00 | 0.00 | 58 | 1014.0 |